Puyallup, WA
on Tuesday, January 15, 2013

Tuesday
Previous Day Next Day
Daily Summary
 ActualAverage (KSEA)Record (KSEA)
Temperature
Mean Temperature °F 42°F  
Max Temperature 42°F 47°F 58°F (1974)
Min Temperature 23°F 37°F 15°F (1950)
Degree Days
Heating Degree Days 32 23  
Month to date heating degree days 353  
Since 1 July heating degree days 2291  
Cooling Degree Days 0 0  
Month to date cooling degree days 0  
Year to date cooling degree days 0  
Moisture
Dew Point 29°F   
Average Humidity 93    
Maximum Humidity 100    
Minimum Humidity 66    
Precipitation
Precipitation 0.00 in 0.19 in 1.68 in (1996)
Month to date precipitation 2.83  
Year to date precipitation 2.83  
Snow
Snow 0.00 in in 3.60 in (1969)
Month to date snowfall  
Since 1 July snowfall  
Snow Depth in   
Wind
Wind Speed 0 mph   
Max Wind Speed 6 mph   
Max Gust Speed mph   
Visibility 9 miles   
Events     

Key: T is trace of precipitation, MM is missing value
Source: NWS Daily Summary
Time(PST)TemperatureDew PointHumidity Pressure Visibility Wind DirectionWind SpeedGust SpeedPrecipitationEvents Conditions
12:15 AM 24.8°F 24.8°F 100% 30.56 in 10.0 miles Calm Calm - N/A   Clear
12:35 AM 24.8°F 24.8°F 100% 30.56 in 9.0 miles Calm Calm - N/A   Clear
12:55 AM 24.8°F 24.8°F 100% 30.56 in 8.0 miles Calm Calm - N/A   Scattered Clouds
1:15 AM 26.6°F 26.6°F 100% 30.57 in 10.0 miles Calm Calm - N/A   Overcast
1:35 AM 26.6°F 26.6°F 100% 30.58 in 10.0 miles Calm Calm - N/A   Overcast
1:55 AM 26.6°F 26.6°F 100% 30.59 in 10.0 miles Calm Calm - N/A   Overcast
2:15 AM 26.6°F 26.6°F 100% 30.59 in 10.0 miles Calm Calm - N/A   Overcast
2:35 AM 28.4°F 28.4°F 100% 30.60 in 10.0 miles Calm Calm - N/A   Overcast
2:55 AM 28.4°F 28.4°F 100% 30.61 in 10.0 miles Calm Calm - N/A   Mostly Cloudy
3:15 AM 28.4°F 28.4°F 100% 30.60 in 10.0 miles Calm Calm - N/A   Mostly Cloudy
3:35 AM 28.4°F 28.4°F 100% 30.60 in 10.0 miles Calm Calm - N/A   Overcast
3:55 AM 28.4°F 28.4°F 100% 30.61 in 10.0 miles Calm Calm - N/A   Overcast
4:15 AM 28.4°F 28.4°F 100% 30.61 in 10.0 miles Calm Calm - N/A   Overcast
4:35 AM 28.4°F 28.4°F 100% 30.61 in 10.0 miles Calm Calm - N/A   Mostly Cloudy
4:55 AM 28.4°F 28.4°F 100% 30.61 in 10.0 miles Calm Calm - N/A   Overcast
5:15 AM 28.4°F 28.4°F 100% 30.61 in 10.0 miles Calm Calm - N/A   Overcast
5:35 AM 28.4°F 28.4°F 100% 30.61 in 10.0 miles Calm Calm - N/A   Mostly Cloudy
5:55 AM 28.4°F 28.4°F 100% 30.62 in 10.0 miles Calm Calm - N/A   Mostly Cloudy
6:15 AM 28.4°F 28.4°F 100% 30.62 in 10.0 miles Calm Calm - N/A   Mostly Cloudy
6:35 AM 28.4°F 28.4°F 100% 30.63 in 10.0 miles Calm Calm - N/A   Overcast
6:55 AM 28.4°F 28.4°F 100% 30.63 in 10.0 miles Calm Calm - N/A   Mostly Cloudy
7:15 AM 28.4°F 28.4°F 100% 30.64 in 10.0 miles Calm Calm - N/A   Mostly Cloudy
7:35 AM 28.4°F 28.4°F 100% 30.65 in 10.0 miles Calm Calm - N/A   Mostly Cloudy
7:55 AM 26.6°F 26.6°F 100% 30.65 in 9.0 miles Calm Calm - N/A   Partly Cloudy
8:15 AM 26.6°F 26.6°F 100% 30.66 in 7.0 miles Calm Calm - N/A   Partly Cloudy
8:35 AM 26.6°F 26.6°F 100% 30.67 in 7.0 miles Calm Calm - N/A   Clear
8:55 AM 28.4°F 28.4°F 100% 30.68 in 9.0 miles Calm Calm - N/A   Clear
9:15 AM 30.2°F 30.2°F 100% 30.68 in 10.0 miles Calm Calm - N/A   Clear
9:35 AM 32.0°F 28.4°F 87% 30.68 in 10.0 miles Calm Calm - N/A   Clear
9:55 AM 33.8°F 32.0°F 93% 30.68 in 10.0 miles Calm Calm - N/A   Clear
10:15 AM 35.6°F 32.0°F 87% 30.68 in 10.0 miles Calm Calm - N/A   Clear
10:35 AM 37.4°F 32.0°F 81% 30.68 in 10.0 miles Calm Calm - N/A   Clear
10:55 AM 39.2°F 32.0°F 75% 30.68 in 10.0 miles Calm Calm - N/A   Clear
11:15 AM 39.2°F 32.0°F 75% 30.68 in 10.0 miles North 3.5 mph - N/A   Clear
11:35 AM 39.2°F 32.0°F 75% 30.67 in 10.0 miles North 5.8 mph - N/A   Clear
11:55 AM 39.2°F 32.0°F 75% 30.68 in 10.0 miles North 3.5 mph - N/A   Clear
12:15 PM 41.0°F 32.0°F 70% 30.67 in 10.0 miles NE 4.6 mph - N/A   Clear
12:35 PM 41.0°F 32.0°F 70% 30.67 in 10.0 miles North 3.5 mph - N/A   Clear
12:55 PM 41.0°F 32.0°F 70% 30.66 in 10.0 miles NNW 4.6 mph - N/A   Clear
1:35 PM 41.0°F 32.0°F 70% 30.66 in 10.0 miles North 4.6 mph - N/A   Clear
1:55 PM 41.0°F 32.0°F 70% 30.66 in 10.0 miles NNW 4.6 mph - N/A   Clear
2:55 PM 42.8°F 32.0°F 66% 30.67 in 10.0 miles NNW 3.5 mph - N/A   Clear
3:15 PM 41.0°F 32.0°F 70% 30.67 in 10.0 miles Calm Calm - N/A   Scattered Clouds
3:35 PM 41.0°F 32.0°F 70% 30.67 in 10.0 miles Calm Calm - N/A   Partly Cloudy
3:55 PM 41.0°F 32.0°F 70% 30.68 in 10.0 miles NNE 3.5 mph - N/A   Clear
4:15 PM 39.2°F 32.0°F 75% 30.67 in 10.0 miles Calm Calm - N/A   Clear
4:35 PM 37.4°F 32.0°F 81% 30.67 in 10.0 miles Calm Calm - N/A   Clear
4:55 PM 33.8°F 32.0°F 93% 30.67 in 10.0 miles Calm Calm - N/A   Clear
5:15 PM 32.0°F 30.2°F 93% 30.66 in 10.0 miles Calm Calm - N/A   Clear
5:35 PM 32.0°F 30.2°F 93% 30.66 in 10.0 miles Calm Calm - N/A   Clear
5:55 PM 30.2°F 30.2°F 100% 30.66 in 10.0 miles Calm Calm - N/A   Clear
6:15 PM 28.4°F 28.4°F 100% 30.66 in 10.0 miles Calm Calm - N/A   Clear
6:35 PM 30.2°F 30.2°F 100% 30.66 in 10.0 miles Calm Calm - N/A   Clear
6:55 PM 28.4°F 28.4°F 100% 30.67 in 10.0 miles Calm Calm - N/A   Clear
7:15 PM 28.4°F 28.4°F 100% 30.67 in 10.0 miles Calm Calm - N/A   Clear
7:35 PM 28.4°F 28.4°F 100% 30.67 in 10.0 miles Calm Calm - N/A   Clear
7:55 PM 26.6°F 26.6°F 100% 30.66 in 8.0 miles Calm Calm - N/A   Clear
8:15 PM 26.6°F 26.6°F 100% 30.67 in 7.0 miles Calm Calm - N/A   Clear
8:35 PM 26.6°F 26.6°F 100% 30.67 in 8.0 miles Calm Calm - N/A   Clear
8:55 PM 26.6°F 26.6°F 100% 30.67 in 6.0 miles Calm Calm - N/A   Clear
9:15 PM 26.6°F 26.6°F 100% 30.67 in 8.0 miles Calm Calm - N/A   Clear
9:35 PM 26.6°F 26.6°F 100% 30.67 in 7.0 miles Calm Calm - N/A   Clear
9:55 PM 26.6°F 26.6°F 100% 30.67 in 6.0 miles Calm Calm - N/A   Clear
10:15 PM 26.6°F 26.6°F 100% 30.66 in 7.0 miles Calm Calm - N/A   Clear
10:35 PM 24.8°F 24.8°F 100% 30.66 in 8.0 miles Calm Calm - N/A   Clear
10:55 PM 24.8°F 24.8°F 100% 30.66 in 7.0 miles Calm Calm - N/A   Clear
11:15 PM 24.8°F 24.8°F 100% 30.65 in 7.0 miles Calm Calm - N/A   Clear
11:35 PM 23.0°F 23.0°F 100% 30.65 in 7.0 miles Calm Calm - N/A   Clear
11:55 PM 23.0°F 23.0°F 100% 30.65 in 5.0 miles Calm Calm - N/A   Clear
Moon Phase
Jan. 15 Jan. 18 Jan. 26 Feb. 03 Feb. 10
Sunrise:07:50 AM (PST) Moon Rise:09:38 AM (PST)
Sunset:04:47 PM (PST) Moon Set:10:05 PM (PST)

Copyright © 2014 The Weather Underground, Inc.